Time,TemperatureF,DewpointF,PressureIn,WindDirection,WindDirectionDegrees,WindSpeedMPH,WindSpeedGustMPH,Humidity,HourlyPrecipIn,Conditions,Clouds,dailyrainin,SoftwareType,DateUTC
2013-03-02 00:07:00,47.9,47.0,30.31,SSE,165,0.0,0.0,98,0.00,,,0.00,weatherlink.com 1.10,2013-03-02 08:07:00,
2013-03-02 00:22:00,47.9,47.0,30.31,SSE,164,0.0,0.0,98,0.00,,,0.00,weatherlink.com 1.10,2013-03-02 08:22:00,
2013-03-02 00:37:00,47.5,47.0,30.30,SSE,164,0.0,0.0,98,0.00,,,0.00,weatherlink.com 1.10,2013-03-02 08:37:00,
2013-03-02 00:52:00,46.8,46.0,30.31,SSE,164,0.0,0.0,98,0.00,,,0.00,weatherlink.com 1.10,2013-03-02 08:52:00,
2013-03-02 01:07:00,46.2,46.0,30.32,SSE,164,0.0,0.0,98,0.00,,,0.00,weatherlink.com 1.10,2013-03-02 09:07:00,
2013-03-02 01:22:00,45.6,45.0,30.30,SSE,164,0.0,0.0,98,0.00,,,0.00,weatherlink.com 1.10,2013-03-02 09:22:00,
2013-03-02 01:37:00,45.2,45.0,30.30,SSE,165,0.0,0.0,99,0.00,,,0.00,weatherlink.com 1.10,2013-03-02 09:37:00,
2013-03-02 01:52:00,45.1,45.0,30.30,SSE,165,0.0,0.0,99,0.00,,,0.00,weatherlink.com 1.10,2013-03-02 09:52:00,
2013-03-02 02:22:00,45.3,45.0,30.29,SSE,164,0.0,0.0,99,0.00,,,0.00,weatherlink.com 1.10,2013-03-02 10:22:00,
2013-03-02 02:37:00,45.6,45.0,30.29,SSE,165,0.0,0.0,99,0.00,,,0.00,weatherlink.com 1.10,2013-03-02 10:37:00,
2013-03-02 02:52:00,45.6,45.0,30.28,SSE,165,0.0,0.0,99,0.00,,,0.00,weatherlink.com 1.10,2013-03-02 10:52:00,
2013-03-02 03:07:00,45.5,45.0,30.27,SSE,165,0.0,0.0,99,0.00,,,0.00,weatherlink.com 1.10,2013-03-02 11:07:00,
2013-03-02 03:22:00,45.7,46.0,30.26,SSE,164,0.0,0.0,99,0.00,,,0.00,weatherlink.com 1.10,2013-03-02 11:22:00,
2013-03-02 03:37:00,45.7,46.0,30.26,SSE,165,0.0,0.0,99,0.00,,,0.00,weatherlink.com 1.10,2013-03-02 11:37:00,
2013-03-02 03:52:00,45.5,45.0,30.26,SSE,165,0.0,0.0,99,0.00,,,0.00,weatherlink.com 1.10,2013-03-02 11:52:00,
2013-03-02 04:07:00,45.5,45.0,30.25,SSE,164,0.0,0.0,99,0.00,,,0.00,weatherlink.com 1.10,2013-03-02 12:07:00,
2013-03-02 04:22:00,45.3,45.0,30.25,SSE,165,0.0,0.0,99,0.00,,,0.00,weatherlink.com 1.10,2013-03-02 12:22:00,
2013-03-02 04:37:00,45.0,45.0,30.24,SSE,165,0.0,0.0,99,0.00,,,0.00,weatherlink.com 1.10,2013-03-02 12:37:00,
2013-03-02 04:52:00,44.8,45.0,30.24,SSE,165,0.0,0.0,99,0.00,,,0.00,weatherlink.com 1.10,2013-03-02 12:52:00,
2013-03-02 05:07:00,44.6,44.0,30.25,SSE,165,0.0,0.0,99,0.00,,,0.00,weatherlink.com 1.10,2013-03-02 13:07:00,
2013-03-02 05:22:00,44.7,45.0,30.24,SSE,165,0.0,0.0,99,0.00,,,0.00,weatherlink.com 1.10,2013-03-02 13:22:00,
2013-03-02 05:37:00,44.8,45.0,30.23,SSE,165,0.0,0.0,99,0.00,,,0.00,weatherlink.com 1.10,2013-03-02 13:37:00,
2013-03-02 05:52:00,44.6,44.0,30.24,SSE,165,0.0,0.0,99,0.00,,,0.00,weatherlink.com 1.10,2013-03-02 13:52:00,
2013-03-02 06:07:00,44.6,44.0,30.23,SSE,165,0.0,0.0,99,0.00,,,0.00,weatherlink.com 1.10,2013-03-02 14:07:00,
2013-03-02 06:22:00,44.8,45.0,30.23,SSE,165,0.0,0.0,99,0.00,,,0.00,weatherlink.com 1.10,2013-03-02 14:22:00,
2013-03-02 06:37:00,44.8,45.0,30.23,SSE,165,0.0,0.0,99,0.00,,,0.00,weatherlink.com 1.10,2013-03-02 14:37:00,
2013-03-02 06:52:00,44.9,45.0,30.23,SSE,165,0.0,0.0,99,0.00,,,0.00,weatherlink.com 1.10,2013-03-02 14:52:00,
2013-03-02 07:07:00,45.3,45.0,30.23,ESE,113,0.0,0.0,99,0.00,,,0.00,weatherlink.com 1.10,2013-03-02 15:07:00,
2013-03-02 07:22:00,45.4,45.0,30.23,ESE,113,0.0,0.0,99,0.00,,,0.00,weatherlink.com 1.10,2013-03-02 15:22:00,
2013-03-02 07:37:00,45.2,45.0,30.22,ESE,112,0.0,0.0,99,0.00,,,0.00,weatherlink.com 1.10,2013-03-02 15:37:00,
2013-03-02 07:52:00,45.3,45.0,30.22,ESE,112,0.0,0.0,99,0.00,,,0.00,weatherlink.com 1.10,2013-03-02 15:52:00,
2013-03-02 08:08:00,45.5,45.0,30.22,ESE,112,0.0,0.0,99,0.00,,,0.00,weatherlink.com 1.10,2013-03-02 16:08:00,
2013-03-02 08:23:00,45.6,45.0,30.21,ESE,113,0.0,0.0,99,0.00,,,0.00,weatherlink.com 1.10,2013-03-02 16:23:00,
2013-03-02 08:38:00,45.9,46.0,30.22,ESE,113,0.0,0.0,99,0.00,,,0.00,weatherlink.com 1.10,2013-03-02 16:38:00,
2013-03-02 08:53:00,46.2,46.0,30.22,SW,231,0.0,0.0,99,0.00,,,0.00,weatherlink.com 1.10,2013-03-02 16:53:00,
2013-03-02 09:08:00,46.7,47.0,30.21,SW,231,0.0,0.0,99,0.00,,,0.00,weatherlink.com 1.10,2013-03-02 17:08:00,
2013-03-02 09:23:00,47.3,47.0,30.20,East,88,0.0,0.0,99,0.00,,,0.00,weatherlink.com 1.10,2013-03-02 17:23:00,
2013-03-02 09:38:00,47.9,47.0,30.21,West,263,0.0,0.0,98,0.00,,,0.00,weatherlink.com 1.10,2013-03-02 17:38:00,
2013-03-02 09:53:00,48.4,48.0,30.21,WSW,240,0.0,0.0,97,0.00,,,0.00,weatherlink.com 1.10,2013-03-02 17:53:00,
2013-03-02 10:23:00,49.6,49.0,30.19,South,184,0.0,0.0,96,0.00,,,0.00,weatherlink.com 1.10,2013-03-02 18:23:00,
2013-03-02 10:38:00,50.4,49.0,30.19,East,86,0.0,3.0,94,0.00,,,0.00,weatherlink.com 1.10,2013-03-02 18:38:00,
2013-03-02 10:53:00,51.6,49.0,30.18,WSW,252,1.0,2.0,92,0.00,,,0.00,weatherlink.com 1.10,2013-03-02 18:53:00,
2013-03-02 11:08:00,52.2,49.0,30.19,SW,221,0.0,2.0,90,0.00,,,0.00,weatherlink.com 1.10,2013-03-02 19:08:00,
2013-03-02 11:23:00,52.2,49.0,30.19,WSW,248,0.0,4.0,89,0.00,,,0.00,weatherlink.com 1.10,2013-03-02 19:23:00,
2013-03-02 11:38:00,52.8,49.0,30.18,SW,226,3.0,4.0,88,0.00,,,0.00,weatherlink.com 1.10,2013-03-02 19:38:00,
2013-03-02 11:53:00,52.9,50.0,30.18,SSW,207,2.0,3.0,89,0.00,,,0.00,weatherlink.com 1.10,2013-03-02 19:53:00,
2013-03-02 12:08:00,52.9,49.0,30.18,South,176,0.0,3.0,86,0.00,,,0.00,weatherlink.com 1.10,2013-03-02 20:08:00,
2013-03-02 12:23:00,53.7,49.0,30.16,SW,224,0.0,6.0,85,0.00,,,0.00,weatherlink.com 1.10,2013-03-02 20:23:00,
2013-03-02 12:38:00,54.6,50.0,30.16,SW,223,0.0,3.0,83,0.00,,,0.00,weatherlink.com 1.10,2013-03-02 20:38:00,
2013-03-02 12:53:00,54.7,50.0,30.16,ENE,70,0.0,4.0,83,0.00,,,0.00,weatherlink.com 1.10,2013-03-02 20:53:00,
2013-03-02 13:08:00,53.9,50.0,30.16,SSE,166,0.0,3.0,85,0.00,,,0.00,weatherlink.com 1.10,2013-03-02 21:08:00,
2013-03-02 13:23:00,53.8,50.0,30.14,West,267,1.0,5.0,86,0.00,,,0.00,weatherlink.com 1.10,2013-03-02 21:23:00,
2013-03-02 13:38:00,53.2,49.0,30.14,SW,229,1.0,5.0,84,0.00,,,0.00,weatherlink.com 1.10,2013-03-02 21:38:00,
2013-03-02 13:53:00,52.8,49.0,30.14,NE,45,0.0,9.0,86,0.00,,,0.00,weatherlink.com 1.10,2013-03-02 21:53:00,
2013-03-02 14:08:00,51.8,49.0,30.14,WSW,258,0.0,3.0,91,0.01,,,0.01,weatherlink.com 1.10,2013-03-02 22:08:00,
2013-03-02 14:23:00,51.1,50.0,30.14,SW,235,0.0,1.0,94,0.04,,,0.04,weatherlink.com 1.10,2013-03-02 22:23:00,
2013-03-02 14:38:00,50.9,50.0,30.14,SW,226,0.0,0.0,96,0.06,,,0.06,weatherlink.com 1.10,2013-03-02 22:38:00,
2013-03-02 14:54:00,51.5,50.0,30.14,SW,228,0.0,6.0,95,0.06,,,0.06,weatherlink.com 1.10,2013-03-02 22:54:00,
2013-03-02 15:09:00,51.4,50.0,30.14,SSE,164,1.0,4.0,94,0.04,,,0.06,weatherlink.com 1.10,2013-03-02 23:09:00,
2013-03-02 15:24:00,51.4,50.0,30.14,West,276,0.0,3.0,95,0.02,,,0.06,weatherlink.com 1.10,2013-03-02 23:24:00,
2013-03-02 15:39:00,47.9,45.0,30.15,NW,316,2.0,20.0,90,0.00,,,0.06,weatherlink.com 1.10,2013-03-02 23:39:00,
2013-03-02 15:54:00,46.4,45.0,30.16,West,264,0.0,13.0,93,0.00,,,0.06,weatherlink.com 1.10,2013-03-02 23:54:00,
2013-03-02 16:09:00,45.4,44.0,30.17,West,277,1.0,9.0,93,0.00,,,0.06,weatherlink.com 1.10,2013-03-03 00:09:00,
2013-03-02 16:24:00,45.2,43.0,30.17,West,269,5.0,7.0,92,0.00,,,0.06,weatherlink.com 1.10,2013-03-03 00:24:00,
2013-03-02 16:39:00,45.2,43.0,30.18,South,169,0.0,2.0,90,0.00,,,0.06,weatherlink.com 1.10,2013-03-03 00:39:00,
2013-03-02 16:54:00,44.9,43.0,30.18,SW,229,0.0,5.0,91,0.00,,,0.06,weatherlink.com 1.10,2013-03-03 00:54:00,
2013-03-02 17:09:00,44.3,42.0,30.18,WNW,288,0.0,8.0,92,0.00,,,0.06,weatherlink.com 1.10,2013-03-03 01:09:00,
2013-03-02 17:24:00,44.0,42.0,30.19,West,278,0.0,4.0,92,0.00,,,0.06,weatherlink.com 1.10,2013-03-03 01:24:00,
2013-03-02 17:39:00,43.7,41.0,30.19,WNW,300,0.0,5.0,91,0.00,,,0.06,weatherlink.com 1.10,2013-03-03 01:39:00,
2013-03-02 17:54:00,43.5,41.0,30.20,WNW,288,0.0,4.0,91,0.00,,,0.06,weatherlink.com 1.10,2013-03-03 01:54:00,
2013-03-02 18:09:00,43.3,41.0,30.20,SSW,203,0.0,2.0,92,0.00,,,0.06,weatherlink.com 1.10,2013-03-03 02:09:00,
2013-03-02 18:24:00,43.1,41.0,30.20,NW,309,4.0,8.0,91,0.00,,,0.06,weatherlink.com 1.10,2013-03-03 02:24:00,
2013-03-02 18:39:00,43.0,41.0,30.21,NW,304,0.0,5.0,91,0.00,,,0.06,weatherlink.com 1.10,2013-03-03 02:39:00,
2013-03-02 18:54:00,42.7,40.0,30.22,West,266,0.0,4.0,91,0.00,,,0.06,weatherlink.com 1.10,2013-03-03 02:54:00,
2013-03-02 19:09:00,42.1,40.0,30.22,SW,234,0.0,2.0,92,0.00,,,0.06,weatherlink.com 1.10,2013-03-03 03:09:00,
2013-03-02 19:24:00,41.2,39.0,30.22,East,82,0.0,3.0,92,0.00,,,0.06,weatherlink.com 1.10,2013-03-03 03:24:00,
2013-03-02 19:39:00,41.0,38.0,30.22,SW,215,1.0,4.0,89,0.00,,,0.06,weatherlink.com 1.10,2013-03-03 03:39:00,
2013-03-02 19:54:00,40.9,38.0,30.23,WNW,295,2.0,4.0,89,0.00,,,0.06,weatherlink.com 1.10,2013-03-03 03:54:00,
2013-03-02 20:09:00,40.9,39.0,30.23,West,276,0.0,10.0,91,0.00,,,0.06,weatherlink.com 1.10,2013-03-03 04:09:00,
2013-03-02 20:24:00,40.4,38.0,30.24,WNW,300,4.0,6.0,92,0.00,,,0.06,weatherlink.com 1.10,2013-03-03 04:24:00,
2013-03-02 20:39:00,40.4,38.0,30.24,WNW,285,4.0,7.0,91,0.00,,,0.06,weatherlink.com 1.10,2013-03-03 04:39:00,
2013-03-02 20:54:00,40.4,38.0,30.24,WNW,294,4.0,5.0,90,0.00,,,0.06,weatherlink.com 1.10,2013-03-03 04:54:00,
2013-03-02 21:09:00,40.0,37.0,30.24,NW,305,1.0,6.0,90,0.00,,,0.06,weatherlink.com 1.10,2013-03-03 05:09:00,
2013-03-02 21:24:00,39.8,37.0,30.25,WNW,293,1.0,8.0,90,0.00,,,0.06,weatherlink.com 1.10,2013-03-03 05:24:00,
2013-03-02 21:39:00,39.3,37.0,30.25,WNW,296,1.0,4.0,92,0.00,,,0.06,weatherlink.com 1.10,2013-03-03 05:39:00,
2013-03-02 21:54:00,38.4,37.0,30.25,WNW,290,0.0,1.0,94,0.00,,,0.06,weatherlink.com 1.10,2013-03-03 05:54:00,
2013-03-02 22:09:00,37.6,36.0,30.25,West,272,0.0,0.0,95,0.00,,,0.06,weatherlink.com 1.10,2013-03-03 06:09:00,
2013-03-02 22:24:00,37.0,36.0,30.25,West,274,0.0,0.0,96,0.00,,,0.06,weatherlink.com 1.10,2013-03-03 06:24:00,
2013-03-02 22:40:00,35.8,35.0,30.26,NE,53,0.0,0.0,96,0.00,,,0.06,weatherlink.com 1.10,2013-03-03 06:40:00,
2013-03-02 22:55:00,35.5,35.0,30.26,WNW,289,0.0,2.0,97,0.00,,,0.06,weatherlink.com 1.10,2013-03-03 06:55:00,
2013-03-02 23:10:00,35.1,34.0,30.26,West,263,0.0,1.0,97,0.00,,,0.06,weatherlink.com 1.10,2013-03-03 07:10:00,
2013-03-02 23:25:00,35.2,35.0,30.26,West,278,0.0,0.0,97,0.00,,,0.06,weatherlink.com 1.10,2013-03-03 07:25:00,
2013-03-02 23:40:00,35.5,35.0,30.26,WNW,294,1.0,3.0,97,0.00,,,0.06,weatherlink.com 1.10,2013-03-03 07:40:00,
2013-03-02 23:55:00,37.0,36.0,30.26,WSW,252,1.0,4.0,95,0.00,,,0.06,weatherlink.com 1.10,2013-03-03 07:55:00,